COSMOS 1275 DEB, 12671

Orbit data source: Space-Track

COSMOS 1275 DEB, 12671 is space debris in LEO originally from a launch on Thu, 04 Jun 1981 UTC launched from the Plesetsk Missile And Space Complex (PKMTR). Debris objects in space refer to the collection of defunct objects orbiting the Earth. Examples of debris include non-operational satellites, rocket bodies, and fragments generated from explosions, collisions, or faulty payload assembly.

Loading next visibility...
Identifier
12671, 1981-053AB
Orbit
LEO
Last TLE update
1 day ago
Origin
Manufacturer
Unknown
Mission
Spacecraft
Bus & Motor
Unknown
Mass
Unknown
Launch date (UTC)
1981-06-04 (44 years ago)
Launch vehicle
Unknown
Launch site
Plesetsk Missile And Space Complex (PKMTR)
Object type
Payload
Rocket body
Debris
Shape & HBR
Unknown
Radar Cross Section
Small (<0.1 m²)

Expand to show TLE details & history

TLE from 1 day ago
0 COSMOS 1275 DEB
1 12671U 81053AB  25193.43631173  .00001568  00000-0  87223-3 0  9997
2 12671  82.9059  97.9994 0017452 183.7260 176.3789 14.10437027231933
Epoch: 2025-07-12T10:28Z
TLE epoch observation values (Epoch: 2025-07-12T10:28:17.333Z)
Latitude
-0.00001°
Longitude
10.35327°
Altitude
873.43 km
Speed
7.409 km/s
True Right ascension
06h 31m 59s
True Declination
0° 00' 00"
Sunlit
Object was in daylight at epoch
Visualization orbit readout
Latitude
45.25471°
Longitude
16.73672°
Altitude
873.684 km
Speed
7.415 km/s
Apparent Right ascension
08h 54m 32s
Apparent Declination
6° 56' 51"
Sunlit
Object is in daylight
Visualization observer readout
Local Sidereal Time
22:57:11
Azimuth
38.315° NE
Elevation
-35.26°
Doppler factor
1
Orbital elements
Apogee altitude
867.601 km
Perigee altitude
842.355 km
Semi-major axis
7,233.115 km
Eccentricity
0.00175
Inclination
82.9059°
RAAN
97.9994°
Arg. of periapsis
183.726°
True anomaly
Unknown
Mean anomaly
176.3789°
Eccentric anomaly
Unknown
Mean motion
3.52822 °/min
Orbital period
102.03 mins
BSTAR
0.00087223
Loading maneuver chart data...
Loading SW <> Apogee altitude chart data...
Loading historical data...
Loading historical data...
Loading historical data...
Loading historical data...
Loading historical data...
Loading historical data...
Loading historical data...

COSMOS 1275 DEB Visibility forecast

Observer location: undefined°, undefined°

Span
Click to sort rows by Start time (UTC) header in descending order
Start Az.
Max El. time (UTC)
Max El. Az.
Max El.
End time (UTC)
End Az.
8 mins2025-07-13 17:14:25.007Z134.039° SE2025-07-13 17:18:25.007Z86.367° E21.68°2025-07-13 17:22:25.007Z37.767° NE
8 mins2025-07-13 18:57:25.007Z220.056° SW2025-07-13 19:01:25.007Z294.161° NW34.085°2025-07-13 19:05:25.007Z349.367° N
9 mins2025-07-14 05:37:25.007Z348.757° N2025-07-14 05:41:25.007Z310.086° NW43.483°2025-07-14 05:46:25.007Z181.341° SSW
|